,,,PA_Meas_PMT16A,,PR_Meas_QMR101_102,,RH_Meas_QMH101,,SR_Meas_QMS101,,TA_Meas_QMH101,,GenWind,,GenWind,
date,time,status,PA,status,PR,status,RH,status,SR,status,TA,status,DirAvg,status,SpdAvg,
2011-02-18, 00:00:04,VALID,1009.46,VALID,0,VALID,103.954,VALID,0,VALID,23.2051,VALID,6,VALID,0,
2011-02-18, 00:01:04,VALID,1009.45,VALID,0,VALID,103.924,VALID,0,VALID,23.2264,VALID,6,VALID,0,
2011-02-18, 00:02:04,VALID,1009.42,VALID,0,VALID,103.947,VALID,0,VALID,23.2459,VALID,6,VALID,0,
2011-02-18, 00:03:04,VALID,1009.39,VALID,0,VALID,103.977,VALID,0,VALID,23.2264,VALID,6,VALID,0.326953,
2011-02-18, 00:04:04,VALID,1009.39,VALID,0,VALID,103.977,VALID,0,VALID,23.2459,VALID,6,VALID,0.259766,
2011-02-18, 00:05:04,VALID,1009.33,VALID,0,VALID,103.97,VALID,0,VALID,23.2459,VALID,6,VALID,0.171875,
2011-02-18, 00:06:04,VALID,1009.3,VALID,0,VALID,103.977,VALID,0,VALID,23.2459,VALID,6,VALID,0,
2011-02-18, 00:07:04,VALID,1009.26,VALID,0,VALID,103.97,VALID,0,VALID,23.2654,VALID,6,VALID,0,
2011-02-18, 00:08:04,VALID,1009.23,VALID,0,VALID,103.97,VALID,0,VALID,23.2459,VALID,6,VALID,0,
2011-02-18, 00:09:04,VALID,1009.19,VALID,0,VALID,103.962,VALID,0,VALID,23.2459,VALID,6,VALID,0,
2011-02-18, 00:10:04,VALID,1009.18,VALID,0,VALID,103.977,VALID,0,VALID,23.2264,VALID,6,VALID,0,
2011-02-18, 00:11:04,VALID,1009.15,VALID,0,VALID,103.97,VALID,0,VALID,23.2069,VALID,6,VALID,0,
2011-02-18, 00:12:04,VALID,1009.12,VALID,0,VALID,103.977,VALID,0,VALID,23.2069,VALID,6,VALID,0,
2011-02-18, 00:13:04,VALID,1009.11,VALID,0,VALID,103.97,VALID,0,VALID,23.1679,VALID,6,VALID,0,
2011-02-18, 00:14:04,VALID,1009.1,VALID,0,VALID,103.947,VALID,0,VALID,23.1679,VALID,6,VALID,0,
2011-02-18, 00:15:04,VALID,1009.1,VALID,0,VALID,103.947,VALID,0,VALID,23.129,VALID,6,VALID,0,
2011-02-18, 00:16:04,VALID,1009.07,VALID,0,VALID,103.954,VALID,0,VALID,23.09,VALID,6,VALID,0,
2011-02-18, 00:17:04,VALID,1009.05,VALID,0,VALID,103.947,VALID,0,VALID,23.0705,VALID,6,VALID,0,
2011-02-18, 00:18:04,VALID,1009.05,VALID,0,VALID,103.931,VALID,0,VALID,23.0511,VALID,6,VALID,0,
2011-02-18, 00:19:04,VALID,1009.02,VALID,0,VALID,103.947,VALID,0,VALID,23.0511,VALID,6,VALID,0,
2011-02-18, 00:20:04,VALID,1009.02,VALID,0,VALID,103.977,VALID,0,VALID,23.0511,VALID,6,VALID,0,
2011-02-18, 00:21:04,VALID,1009.04,VALID,0,VALID,103.992,VALID,0,VALID,23.0705,VALID,6,VALID,0,
2011-02-18, 00:22:04,VALID,1009.05,VALID,0,VALID,104,VALID,0,VALID,23.0511,VALID,6,VALID,0,
2011-02-18, 00:23:04,VALID,1009.07,VALID,0,VALID,104,VALID,0,VALID,23.0103,VALID,6,VALID,0,
2011-02-18, 00:24:04,VALID,1009.06,VALID,0,VALID,104,VALID,0,VALID,23.0121,VALID,6,VALID,0,
2011-02-18, 00:25:04,VALID,1009.05,VALID,0,VALID,104,VALID,0,VALID,22.9926,VALID,6,VALID,0,
2011-02-18, 00:26:04,VALID,1009.05,VALID,0,VALID,104,VALID,0,VALID,22.9926,VALID,6,VALID,0,
2011-02-18, 00:27:04,VALID,1009.03,VALID,0,VALID,104,VALID,0,VALID,22.9926,VALID,6,VALID,0,
2011-02-18, 00:28:04,VALID,1009.02,VALID,0,VALID,104,VALID,0,VALID,22.9731,VALID,6,VALID,0,
2011-02-18, 00:29:04,VALID,1009.02,VALID,0,VALID,104,VALID,0,VALID,22.9926,VALID,6,VALID,0,
2011-02-18, 00:30:04,VALID,1008.98,VALID,0,VALID,104,VALID,0,VALID,23.0121,VALID,6,VALID,0,
2011-02-18, 00:31:04,VALID,1008.97,VALID,0,VALID,104,VALID,0,VALID,23.0121,VALID,6,VALID,0,
2011-02-18, 00:32:04,VALID,1008.96,VALID,0,VALID,104,VALID,0,VALID,23.0121,VALID,6,VALID,0,
2011-02-18, 00:33:04,VALID,1008.93,VALID,0,VALID,104,VALID,0,VALID,23.0121,VALID,6,VALID,0,
2011-02-18, 00:34:04,VALID,1008.89,VALID,0,VALID,104,VALID,0,VALID,23.0121,VALID,6,VALID,0,
2011-02-18, 00:35:04,VALID,1008.88,VALID,0,VALID,104,VALID,0,VALID,23.0316,VALID,6,VALID,0,
2011-02-18, 00:36:04,VALID,1008.83,VALID,0,VALID,104,VALID,0,VALID,23.0316,VALID,6,VALID,0,
2011-02-18, 00:37:04,VALID,1008.85,VALID,0,VALID,104,VALID,0,VALID,23.0316,VALID,6,VALID,0,
2011-02-18, 00:38:04,VALID,1008.8,VALID,0,VALID,104,VALID,0,VALID,23.0316,VALID,6,VALID,0,
2011-02-18, 00:39:04,VALID,1008.81,VALID,0,VALID,104,VALID,0,VALID,23.0121,VALID,6,VALID,0,
2011-02-18, 00:40:04,VALID,1008.82,VALID,0,VALID,104,VALID,0,VALID,22.9909,VALID,6,VALID,0.570313,
2011-02-18, 00:41:04,VALID,1008.8,VALID,0,VALID,104,VALID,0,VALID,23.0316,VALID,6,VALID,0.380078,
2011-02-18, 00:42:04,VALID,1008.82,VALID,0,VALID,104,VALID,0,VALID,23.0298,VALID,6,VALID,0.189063,
2011-02-18, 00:43:04,VALID,1008.81,VALID,0,VALID,104,VALID,0,VALID,23.0511,VALID,6,VALID,0.0984375,
2011-02-18, 00:44:04,VALID,1008.83,VALID,0,VALID,104,VALID,0,VALID,23.0316,VALID,6,VALID,0,
2011-02-18, 00:45:04,VALID,1008.82,VALID,0,VALID,104,VALID,0,VALID,23.0316,VALID,6,VALID,0,
2011-02-18, 00:46:04,VALID,1008.82,VALID,0,VALID,104,VALID,0,VALID,23.0121,VALID,6,VALID,0,
2011-02-18, 00:47:04,VALID,1008.8,VALID,0,VALID,104,VALID,0,VALID,22.9926,VALID,6,VALID,0,
2011-02-18, 00:48:04,VALID,1008.79,VALID,0,VALID,104,VALID,0,VALID,22.9731,VALID,6,VALID,0,
2011-02-18, 00:49:04,VALID,1008.75,VALID,0,VALID,104,VALID,0,VALID,22.9536,VALID,6,VALID,0,
2011-02-18, 00:50:04,VALID,1008.75,VALID,0,VALID,104,VALID,0,VALID,22.9342,VALID,6,VALID,0,
2011-02-18, 00:51:04,VALID,1008.72,VALID,0,VALID,104,VALID,0,VALID,22.9342,VALID,6,VALID,0,
2011-02-18, 00:52:04,VALID,1008.7,VALID,0,VALID,104,VALID,0,VALID,22.9147,VALID,6,VALID,0,
2011-02-18, 00:53:04,VALID,1008.69,VALID,0,VALID,104,VALID,0,VALID,22.9342,VALID,6,VALID,0,
2011-02-18, 00:54:04,VALID,1008.69,VALID,0,VALID,104,VALID,0,VALID,22.9147,VALID,6,VALID,0,
2011-02-18, 00:55:04,VALID,1008.68,VALID,0,VALID,104,VALID,0,VALID,22.9147,VALID,6,VALID,0,
2011-02-18, 00:56:04,VALID,1008.68,VALID,0,VALID,104,VALID,0,VALID,22.9147,VALID,6,VALID,0,
2011-02-18, 00:57:04,VALID,1008.67,VALID,0,VALID,104,VALID,0,VALID,22.9342,VALID,6,VALID,0,
2011-02-18, 00:58:04,VALID,1008.64,VALID,0,VALID,104,VALID,0,VALID,22.9342,VALID,6,VALID,0.173438,
2011-02-18, 00:59:04,VALID,1008.63,VALID,0,VALID,104,VALID,0,VALID,22.9536,VALID,6,VALID,0.0183594,
2011-02-18, 01:00:04,VALID,1008.6,VALID,0,VALID,104,VALID,0,VALID,22.9536,VALID,6,VALID,0.0894531,
2011-02-18, 01:01:04,VALID,1008.61,VALID,0,VALID,104,VALID,0,VALID,22.9342,VALID,6,VALID,0.0804688,
2011-02-18, 01:02:04,VALID,1008.59,VALID,0,VALID,104,VALID,0,VALID,22.9342,VALID,6,VALID,0,
2011-02-18, 01:03:04,VALID,1008.57,VALID,0,VALID,104,VALID,0,VALID,22.9147,VALID,6,VALID,0,
2011-02-18, 01:04:04,VALID,1008.57,VALID,0,VALID,104,VALID,0,VALID,22.9342,VALID,6,VALID,0.225,
2011-02-18, 01:05:04,VALID,1008.52,VALID,0,VALID,104,VALID,0,VALID,22.9731,VALID,6,VALID,0.00585938,
2011-02-18, 01:06:04,VALID,1008.53,VALID,0,VALID,104,VALID,0,VALID,22.9731,VALID,6,VALID,0.496094,
2011-02-18, 01:07:04,VALID,1008.53,VALID,0,VALID,104,VALID,0,VALID,23.0138,VALID,6,VALID,0.0941406,
2011-02-18, 01:08:04,VALID,1008.5,VALID,0,VALID,104,VALID,0,VALID,22.9749,VALID,6,VALID,0.178125,
2011-02-18, 01:09:04,VALID,1008.47,VALID,0,VALID,104,VALID,0,VALID,22.9342,VALID,6,VALID,0.24375,
2011-02-18, 01:10:04,VALID,1008.45,VALID,0,VALID,104,VALID,0,VALID,22.9359,VALID,6,VALID,0,
2011-02-18, 01:11:04,VALID,1008.42,VALID,0,VALID,104,VALID,0,VALID,22.9359,VALID,6,VALID,0,
2011-02-18, 01:12:04,VALID,1008.42,VALID,0,VALID,104,VALID,0,VALID,22.9147,VALID,6,VALID,0,
2011-02-18, 01:13:04,VALID,1008.4,VALID,0,VALID,104,VALID,0,VALID,22.9164,VALID,6,VALID,0,
2011-02-18, 01:14:04,VALID,1008.37,VALID,0,VALID,104,VALID,0,VALID,22.9164,VALID,6,VALID,0,
2011-02-18, 01:15:04,VALID,1008.38,VALID,0,VALID,104,VALID,0,VALID,22.8952,VALID,6,VALID,0,
2011-02-18, 01:16:04,VALID,1008.36,VALID,0,VALID,104,VALID,0,VALID,22.8952,VALID,6,VALID,0,
2011-02-18, 01:17:04,VALID,1008.36,VALID,0,VALID,104,VALID,0,VALID,22.8757,VALID,6,VALID,0,
2011-02-18, 01:18:04,VALID,1008.32,VALID,0,VALID,104,VALID,0,VALID,22.8757,VALID,6,VALID,0,
2011-02-18, 01:19:04,VALID,1008.33,VALID,0,VALID,104,VALID,0,VALID,22.8757,VALID,6,VALID,0,
2011-02-18, 01:20:04,VALID,1008.33,VALID,0,VALID,104,VALID,0,VALID,22.8775,VALID,6,VALID,0,
2011-02-18, 01:21:04,VALID,1008.32,VALID,0,VALID,104,VALID,0,VALID,22.8562,VALID,6,VALID,0,
2011-02-18, 01:22:04,VALID,1008.29,VALID,0,VALID,104,VALID,0,VALID,22.8368,VALID,6,VALID,0,
2011-02-18, 01:23:04,VALID,1008.31,VALID,0,VALID,104,VALID,0,VALID,22.8368,VALID,6,VALID,0,
2011-02-18, 01:24:04,VALID,1008.27,VALID,0,VALID,104,VALID,0,VALID,22.8562,VALID,6,VALID,0,
2011-02-18, 01:25:04,VALID,1008.3,VALID,0,VALID,104,VALID,0,VALID,22.8562,VALID,6,VALID,0,
2011-02-18, 01:26:04,VALID,1008.3,VALID,0,VALID,104,VALID,0,VALID,22.8562,VALID,6,VALID,0,
2011-02-18, 01:27:04,VALID,1008.32,VALID,0,VALID,104,VALID,0,VALID,22.8775,VALID,6,VALID,0,
2011-02-18, 01:28:04,VALID,1008.37,VALID,0,VALID,104,VALID,0,VALID,22.8757,VALID,6,VALID,0,
2011-02-18, 01:29:04,VALID,1008.37,VALID,0,VALID,104,VALID,0,VALID,22.8562,VALID,6,VALID,0,
2011-02-18, 01:30:04,VALID,1008.37,VALID,0,VALID,104,VALID,0.105969,VALID,22.8545,VALID,6,VALID,0,
2011-02-18, 01:31:04,VALID,1008.38,VALID,0,VALID,104,VALID,0.105969,VALID,22.874,VALID,6,VALID,0,
2011-02-18, 01:32:04,VALID,1008.36,VALID,0,VALID,104,VALID,0.105969,VALID,22.874,VALID,6,VALID,0,
2011-02-18, 01:33:04,VALID,1008.33,VALID,0,VALID,104,VALID,0,VALID,22.8935,VALID,6,VALID,0,
2011-02-18, 01:34:04,VALID,1008.35,VALID,0,VALID,104,VALID,0.105969,VALID,22.9324,VALID,6,VALID,0,
2011-02-18, 01:35:04,VALID,1008.34,VALID,0,VALID,104,VALID,0.105969,VALID,22.9519,VALID,6,VALID,0,
2011-02-18, 01:36:04,VALID,1008.35,VALID,0,VALID,104,VALID,0,VALID,22.9324,VALID,6,VALID,0,
2011-02-18, 01:37:04,VALID,1008.39,VALID,0,VALID,104,VALID,0.105969,VALID,22.9324,VALID,6,VALID,0,
2011-02-18, 01:38:04,VALID,1008.4,VALID,0,VALID,104,VALID,0.105969,VALID,22.9324,VALID,6,VALID,0,
2011-02-18, 01:39:04,VALID,1008.43,VALID,0,VALID,104,VALID,0.105969,VALID,22.9342,VALID,6,VALID,0,
2011-02-18, 01:40:04,VALID,1008.45,VALID,0,VALID,104,VALID,0,VALID,22.9342,VALID,6,VALID,0,
2011-02-18, 01:41:04,VALID,1008.47,VALID,0,VALID,104,VALID,0,VALID,22.9342,VALID,6,VALID,0,
2011-02-18, 01:42:04,VALID,1008.46,VALID,0,VALID,104,VALID,0,VALID,22.9129,VALID,6,VALID,0,
2011-02-18, 01:43:04,VALID,1008.44,VALID,0,VALID,104,VALID,0.105969,VALID,22.9324,VALID,6,VALID,0,
2011-02-18, 01:44:04,VALID,1008.43,VALID,0,VALID,104,VALID,0.105969,VALID,22.9324,VALID,6,VALID,0,
2011-02-18, 01:45:04,VALID,1008.39,VALID,0,VALID,104,VALID,0,VALID,22.9342,VALID,6,VALID,0,
2011-02-18, 01:46:04,VALID,1008.38,VALID,0,VALID,104,VALID,0,VALID,22.9359,VALID,6,VALID,0,
2011-02-18, 01:47:04,VALID,1008.35,VALID,0,VALID,104,VALID,0,VALID,22.9342,VALID,6,VALID,0,
2011-02-18, 01:48:04,VALID,1008.34,VALID,0,VALID,104,VALID,0,VALID,22.9554,VALID,6,VALID,0,
2011-02-18, 01:49:04,VALID,1008.34,VALID,0,VALID,104,VALID,0,VALID,22.9554,VALID,6,VALID,0,
2011-02-18, 01:50:04,VALID,1008.36,VALID,0,VALID,104,VALID,0,VALID,22.9147,VALID,6,VALID,0,
2011-02-18, 01:51:04,VALID,1008.36,VALID,0,VALID,104,VALID,0,VALID,22.9342,VALID,6,VALID,0,
2011-02-18, 01:52:04,VALID,1008.35,VALID,0,VALID,104,VALID,0,VALID,22.9147,VALID,6,VALID,0.0453125,
2011-02-18, 01:53:04,VALID,1008.34,VALID,0,VALID,104,VALID,0,VALID,22.9342,VALID,6,VALID,0.348828,
2011-02-18, 01:54:04,VALID,1008.33,VALID,0,VALID,104,VALID,0,VALID,22.9342,VALID,4,VALID,0.439063,
2011-02-18, 01:55:04,VALID,1008.32,VALID,0,VALID,104,VALID,0,VALID,22.9536,VALID,279,VALID,0.453125,
2011-02-18, 01:56:04,VALID,1008.32,VALID,0,VALID,104,VALID,0,VALID,22.9731,VALID,279,VALID,0.611719,
2011-02-18, 01:57:04,VALID,1008.26,VALID,0,VALID,104,VALID,0,VALID,22.9731,VALID,279,VALID,0.178516,
2011-02-18, 01:58:04,VALID,1008.29,VALID,0,VALID,104,VALID,0,VALID,22.9943,VALID,279,VALID,0.224219,
2011-02-18, 01:59:04,VALID,1008.25,VALID,0,VALID,104,VALID,0,VALID,22.9731,VALID,279,VALID,0.449609,
2011-02-18, 02:00:04,VALID,1008.26,VALID,0,VALID,104,VALID,0.105969,VALID,22.9714,VALID,279,VALID,0.398047,
2011-02-18, 02:01:04,VALID,1008.22,VALID,0,VALID,104,VALID,0.105969,VALID,22.9926,VALID,279,VALID,0.258984,
2011-02-18, 02:02:04,VALID,1008.19,VALID,0,VALID,104,VALID,0,VALID,22.9714,VALID,279,VALID,0.382813,
2011-02-18, 02:03:04,VALID,1008.17,VALID,0,VALID,104,VALID,0.105969,VALID,22.9519,VALID,279,VALID,0.412109,
2011-02-18, 02:04:04,VALID,1008.12,VALID,0,VALID,104,VALID,0.105969,VALID,22.9926,VALID,279,VALID,0.510547,
2011-02-18, 02:05:04,VALID,1008.14,VALID,0,VALID,104,VALID,0.105969,VALID,22.9714,VALID,279,VALID,0.426562,
2011-02-18, 02:06:04,VALID,1008.14,VALID,0,VALID,104,VALID,0.105969,VALID,22.9714,VALID,279,VALID,0.154687,
2011-02-18, 02:07:04,VALID,1008.14,VALID,0,VALID,104,VALID,0.105969,VALID,23.0121,VALID,279,VALID,0.128125,
2011-02-18, 02:08:04,VALID,1008.12,VALID,0,VALID,104,VALID,0.105969,VALID,22.9909,VALID,279,VALID,0.214844,
2011-02-18, 02:09:04,VALID,1008.12,VALID,0,VALID,104,VALID,0.105969,VALID,22.9714,VALID,279,VALID,0.212109,
2011-02-18, 02:10:04,VALID,1008.13,VALID,0,VALID,104,VALID,0.105969,VALID,22.9714,VALID,279,VALID,0.281641,
2011-02-18, 02:11:04,VALID,1008.13,VALID,0,VALID,104,VALID,0.105969,VALID,22.9926,VALID,279,VALID,0.113672,
2011-02-18, 02:12:04,VALID,1008.11,VALID,0,VALID,104,VALID,0.105969,VALID,22.9714,VALID,279,VALID,0.125781,
2011-02-18, 02:13:04,VALID,1008.09,VALID,0,VALID,104,VALID,0.105969,VALID,22.9714,VALID,280,VALID,0,
2011-02-18, 02:14:04,VALID,1008.04,VALID,0,VALID,104,VALID,0.105969,VALID,22.9926,VALID,279,VALID,0,
2011-02-18, 02:15:04,VALID,1008.04,VALID,0,VALID,104,VALID,0.105969,VALID,22.9731,VALID,279,VALID,0,
2011-02-18, 02:16:04,VALID,1007.99,VALID,0,VALID,104,VALID,0.105969,VALID,22.9731,VALID,279,VALID,0,
2011-02-18, 02:17:04,VALID,1007.99,VALID,0,VALID,104,VALID,0.105969,VALID,22.9926,VALID,279,VALID,0,
2011-02-18, 02:18:04,VALID,1007.95,VALID,0,VALID,104,VALID,0.105969,VALID,23.0121,VALID,279,VALID,0.158203,
2011-02-18, 02:19:04,VALID,1007.95,VALID,0,VALID,104,VALID,0.105969,VALID,22.9909,VALID,279,VALID,0.169531,
2011-02-18, 02:20:04,VALID,1007.92,VALID,0,VALID,104,VALID,0.105969,VALID,23.0103,VALID,279,VALID,0,
2011-02-18, 02:21:04,VALID,1007.9,VALID,0,VALID,104,VALID,0.105969,VALID,23.0103,VALID,279,VALID,0,
2011-02-18, 02:22:04,VALID,1007.88,VALID,0,VALID,104,VALID,0.105969,VALID,23.0316,VALID,279,VALID,0,
2011-02-18, 02:23:04,VALID,1007.89,VALID,0,VALID,104,VALID,0.105969,VALID,22.9714,VALID,279,VALID,0,
2011-02-18, 02:24:04,VALID,1007.88,VALID,0,VALID,104,VALID,0.105969,VALID,22.9519,VALID,279,VALID,0,
2011-02-18, 02:25:04,VALID,1007.89,VALID,0,VALID,104,VALID,0,VALID,22.9536,VALID,279,VALID,0,
2011-02-18, 02:26:04,VALID,1007.88,VALID,0,VALID,104,VALID,0,VALID,22.9731,VALID,279,VALID,0,
2011-02-18, 02:27:04,VALID,1007.86,VALID,0,VALID,104,VALID,0.105969,VALID,22.9324,VALID,279,VALID,0,
2011-02-18, 02:28:04,VALID,1007.86,VALID,0,VALID,104,VALID,0.105969,VALID,22.9731,VALID,279,VALID,0,
2011-02-18, 02:29:04,VALID,1007.88,VALID,0,VALID,104,VALID,0.105969,VALID,22.9731,VALID,279,VALID,0,
2011-02-18, 02:30:04,VALID,1007.85,VALID,0,VALID,104,VALID,0,VALID,22.9926,VALID,279,VALID,0,
2011-02-18, 02:31:04,VALID,1007.85,VALID,0,VALID,104,VALID,0,VALID,23.0121,VALID,279,VALID,0,
2011-02-18, 02:32:04,VALID,1007.82,VALID,0,VALID,104,VALID,0.105969,VALID,22.9909,VALID,279,VALID,0.00078125,
2011-02-18, 02:33:04,VALID,1007.82,VALID,0,VALID,104,VALID,0.105969,VALID,22.9714,VALID,279,VALID,0.125781,
2011-02-18, 02:34:04,VALID,1007.8,VALID,0,VALID,104,VALID,0.105969,VALID,22.9519,VALID,279,VALID,0.189453,
2011-02-18, 02:35:04,VALID,1007.75,VALID,0,VALID,104,VALID,0,VALID,22.9519,VALID,280,VALID,0.226953,
2011-02-18, 02:36:04,VALID,1007.71,VALID,0,VALID,104,VALID,0.105969,VALID,22.9519,VALID,279,VALID,0.204688,
2011-02-18, 02:37:04,VALID,1007.68,VALID,0,VALID,104,VALID,0.105969,VALID,22.9324,VALID,279,VALID,0.144531,
2011-02-18, 02:38:04,VALID,1007.66,VALID,0,VALID,104,VALID,0.105969,VALID,22.9147,VALID,280,VALID,0.225781,
2011-02-18, 02:39:04,VALID,1007.65,VALID,0,VALID,104,VALID,0.105969,VALID,22.8935,VALID,280,VALID,0.216406,
2011-02-18, 02:40:04,VALID,1007.63,VALID,0,VALID,104,VALID,0.105969,VALID,22.874,VALID,279,VALID,0.161719,
2011-02-18, 02:41:04,VALID,1007.62,VALID,0,VALID,104,VALID,0.105969,VALID,22.835,VALID,279,VALID,0.133594,
2011-02-18, 02:42:04,VALID,1007.62,VALID,0,VALID,104,VALID,0.105969,VALID,22.7961,VALID,279,VALID,0.183984,
2011-02-18, 02:43:04,VALID,1007.64,VALID,0,VALID,104,VALID,0.105969,VALID,22.7961,VALID,279,VALID,0.195313,
2011-02-18, 02:44:04,VALID,1007.62,VALID,0,VALID,104,VALID,0.105969,VALID,22.7766,VALID,279,VALID,0.196094,
2011-02-18, 02:45:04,VALID,1007.63,VALID,0,VALID,104,VALID,0.105969,VALID,22.7571,VALID,279,VALID,0.183203,
2011-02-18, 02:46:04,VALID,1007.63,VALID,0,VALID,104,VALID,0.211938,VALID,22.7376,VALID,279,VALID,0.187891,
2011-02-18, 02:47:04,VALID,1007.62,VALID,0,VALID,104,VALID,0.105969,VALID,22.7376,VALID,279,VALID,0.228516,
2011-02-18, 02:48:04,VALID,1007.63,VALID,0,VALID,104,VALID,0.211938,VALID,22.7571,VALID,279,VALID,0.0660156,
2011-02-18, 02:49:04,VALID,1007.62,VALID,0,VALID,104,VALID,0.211938,VALID,22.7182,VALID,279,VALID,0,
2011-02-18, 02:50:04,VALID,1007.63,VALID,0,VALID,104,VALID,0.211938,VALID,22.6987,VALID,279,VALID,0,
2011-02-18, 02:51:04,VALID,1007.65,VALID,0,VALID,104,VALID,0.105969,VALID,22.7004,VALID,279,VALID,0,
2011-02-18, 02:52:04,VALID,1007.66,VALID,0,VALID,104,VALID,0.105969,VALID,22.6792,VALID,280,VALID,0,
2011-02-18, 02:53:04,VALID,1007.66,VALID,0,VALID,104,VALID,0.105969,VALID,22.6792,VALID,279,VALID,0,
2011-02-18, 02:54:04,VALID,1007.64,VALID,0,VALID,104,VALID,0.105969,VALID,22.6597,VALID,279,VALID,0,
2011-02-18, 02:55:04,VALID,1007.64,VALID,0,VALID,104,VALID,0.105969,VALID,22.6792,VALID,280,VALID,0,
2011-02-18, 02:56:04,VALID,1007.65,VALID,0,VALID,104,VALID,0.105969,VALID,22.6402,VALID,279,VALID,0,
2011-02-18, 02:57:04,VALID,1007.63,VALID,0,VALID,104,VALID,0.105969,VALID,22.6597,VALID,279,VALID,0,
2011-02-18, 02:58:04,VALID,1007.63,VALID,0,VALID,104,VALID,0.105969,VALID,22.6597,VALID,279,VALID,0,
2011-02-18, 02:59:04,VALID,1007.64,VALID,0,VALID,104,VALID,0.105969,VALID,22.6385,VALID,279,VALID,0,
2011-02-18, 03:00:04,VALID,1007.63,VALID,0,VALID,104,VALID,0.105969,VALID,22.6792,VALID,279,VALID,0,
2011-02-18, 03:01:04,VALID,1007.63,VALID,0,VALID,104,VALID,0.105969,VALID,22.6987,VALID,279,VALID,0,
2011-02-18, 03:02:04,VALID,1007.62,VALID,0,VALID,104,VALID,0.105969,VALID,22.7182,VALID,279,VALID,0,
2011-02-18, 03:03:04,VALID,1007.67,VALID,0,VALID,104,VALID,0.105969,VALID,22.7588,VALID,279,VALID,0,
2011-02-18, 03:04:04,VALID,1007.67,VALID,0,VALID,104,VALID,0.105969,VALID,22.7571,VALID,279,VALID,0,
2011-02-18, 03:05:04,VALID,1007.71,VALID,0,VALID,104,VALID,0.105969,VALID,22.7766,VALID,279,VALID,0,
2011-02-18, 03:06:04,VALID,1007.7,VALID,0,VALID,104,VALID,0.105969,VALID,22.7961,VALID,279,VALID,0.133984,
2011-02-18, 03:07:04,VALID,1007.71,VALID,0,VALID,104,VALID,0.105969,VALID,22.8155,VALID,279,VALID,0.225391,
2011-02-18, 03:08:04,VALID,1007.71,VALID,0,VALID,104,VALID,0.105969,VALID,22.8155,VALID,279,VALID,0,
2011-02-18, 03:09:04,VALID,1007.7,VALID,0,VALID,104,VALID,0.105969,VALID,22.835,VALID,279,VALID,0,
2011-02-18, 03:10:04,VALID,1007.7,VALID,0,VALID,104,VALID,0.105969,VALID,22.835,VALID,279,VALID,0,
2011-02-18, 03:11:04,VALID,1007.71,VALID,0,VALID,104,VALID,0.105969,VALID,22.8155,VALID,279,VALID,0,
2011-02-18, 03:12:04,VALID,1007.73,VALID,0,VALID,104,VALID,0.105969,VALID,22.7766,VALID,279,VALID,0,
2011-02-18, 03:13:04,VALID,1007.7,VALID,0,VALID,104,VALID,0.105969,VALID,22.7978,VALID,279,VALID,0,
2011-02-18, 03:14:04,VALID,1007.7,VALID,0,VALID,104,VALID,0.105969,VALID,22.7766,VALID,279,VALID,0.213281,
2011-02-18, 03:15:04,VALID,1007.69,VALID,0,VALID,104,VALID,0.105969,VALID,22.7571,VALID,279,VALID,0.208984,
2011-02-18, 03:16:04,VALID,1007.71,VALID,0,VALID,104,VALID,0.105969,VALID,22.7376,VALID,279,VALID,0.163281,
2011-02-18, 03:17:04,VALID,1007.68,VALID,0,VALID,104,VALID,0.211938,VALID,22.7376,VALID,279,VALID,0.00507812,
2011-02-18, 03:18:04,VALID,1007.7,VALID,0,VALID,104,VALID,0.105969,VALID,22.7182,VALID,279,VALID,0,
2011-02-18, 03:19:04,VALID,1007.64,VALID,0,VALID,104,VALID,0.105969,VALID,22.7394,VALID,279,VALID,0,
2011-02-18, 03:20:04,VALID,1007.68,VALID,0,VALID,104,VALID,0.105969,VALID,22.7182,VALID,279,VALID,0,
2011-02-18, 03:21:04,VALID,1007.66,VALID,0,VALID,104,VALID,0.105969,VALID,22.6987,VALID,279,VALID,0,
2011-02-18, 03:22:04,VALID,1007.68,VALID,0,VALID,104,VALID,0.105969,VALID,22.6987,VALID,279,VALID,0,
2011-02-18, 03:23:04,VALID,1007.66,VALID,0,VALID,104,VALID,0.211938,VALID,22.6987,VALID,279,VALID,0,
2011-02-18, 03:24:04,VALID,1007.68,VALID,0,VALID,104,VALID,0.105969,VALID,22.7182,VALID,279,VALID,0,
2011-02-18, 03:25:04,VALID,1007.69,VALID,0,VALID,104,VALID,0.105969,VALID,22.6987,VALID,279,VALID,0,
2011-02-18, 03:26:04,VALID,1007.71,VALID,0,VALID,104,VALID,0.105969,VALID,22.7182,VALID,279,VALID,0,
2011-02-18, 03:27:04,VALID,1007.73,VALID,0,VALID,104,VALID,0.105969,VALID,22.6987,VALID,279,VALID,0,
2011-02-18, 03:28:04,VALID,1007.73,VALID,0,VALID,104,VALID,0.105969,VALID,22.6597,VALID,279,VALID,0,
2011-02-18, 03:29:04,VALID,1007.73,VALID,0,VALID,104,VALID,0.105969,VALID,22.6402,VALID,279,VALID,0,
2011-02-18, 03:30:04,VALID,1007.74,VALID,0,VALID,104,VALID,0,VALID,22.642,VALID,279,VALID,0,
2011-02-18, 03:31:04,VALID,1007.72,VALID,0,VALID,104,VALID,0,VALID,22.6225,VALID,279,VALID,0,
2011-02-18, 03:32:04,VALID,1007.75,VALID,0,VALID,104,VALID,0,VALID,22.603,VALID,279,VALID,0,
2011-02-18, 03:33:04,VALID,1007.71,VALID,0,VALID,104,VALID,0,VALID,22.603,VALID,279,VALID,0,
2011-02-18, 03:34:04,VALID,1007.74,VALID,0,VALID,104,VALID,0.105969,VALID,22.603,VALID,279,VALID,0,
2011-02-18, 03:35:04,VALID,1007.72,VALID,0,VALID,104,VALID,0,VALID,22.5835,VALID,279,VALID,0,
2011-02-18, 03:36:04,VALID,1007.73,VALID,0,VALID,104,VALID,0,VALID,22.5429,VALID,279,VALID,0,
2011-02-18, 03:37:04,VALID,1007.71,VALID,0,VALID,104,VALID,0,VALID,22.5658,VALID,279,VALID,0,
2011-02-18, 03:38:04,VALID,1007.72,VALID,0,VALID,104,VALID,0,VALID,22.5446,VALID,279,VALID,0,
2011-02-18, 03:39:04,VALID,1007.71,VALID,0,VALID,104,VALID,0,VALID,22.5658,VALID,279,VALID,0,
2011-02-18, 03:40:04,VALID,1007.67,VALID,0,VALID,104,VALID,0,VALID,22.5446,VALID,279,VALID,0,
2011-02-18, 03:41:04,VALID,1007.66,VALID,0,VALID,104,VALID,0,VALID,22.564,VALID,279,VALID,0,
2011-02-18, 03:42:04,VALID,1007.66,VALID,0,VALID,104,VALID,0,VALID,22.5835,VALID,279,VALID,0,
2011-02-18, 03:43:04,VALID,1007.63,VALID,0,VALID,104,VALID,0,VALID,22.5835,VALID,279,VALID,0,
2011-02-18, 03:44:04,VALID,1007.66,VALID,0,VALID,104,VALID,0,VALID,22.603,VALID,279,VALID,0,
2011-02-18, 03:45:04,VALID,1007.66,VALID,0,VALID,104,VALID,0,VALID,22.5835,VALID,279,VALID,0,
2011-02-18, 03:46:04,VALID,1007.66,VALID,0,VALID,104,VALID,0,VALID,22.5835,VALID,279,VALID,0,
2011-02-18, 03:47:04,VALID,1007.67,VALID,0,VALID,104,VALID,0,VALID,22.603,VALID,279,VALID,0,
2011-02-18, 03:48:04,VALID,1007.69,VALID,0,VALID,104,VALID,0,VALID,22.603,VALID,279,VALID,0,
2011-02-18, 03:49:04,VALID,1007.67,VALID,0,VALID,104,VALID,0,VALID,22.6437,VALID,279,VALID,0,
2011-02-18, 03:50:04,VALID,1007.67,VALID,0,VALID,104,VALID,0,VALID,22.642,VALID,279,VALID,0,
2011-02-18, 03:51:04,VALID,1007.65,VALID,0,VALID,104,VALID,0,VALID,22.642,VALID,279,VALID,0,
2011-02-18, 03:52:04,VALID,1007.65,VALID,0,VALID,104,VALID,0,VALID,22.6614,VALID,279,VALID,0,
2011-02-18, 03:53:04,VALID,1007.62,VALID,0,VALID,104,VALID,0,VALID,22.6809,VALID,279,VALID,0,
2011-02-18, 03:54:04,VALID,1007.61,VALID,0,VALID,104,VALID,0,VALID,22.6809,VALID,279,VALID,0,
2011-02-18, 03:55:04,VALID,1007.63,VALID,0,VALID,104,VALID,0,VALID,22.6614,VALID,279,VALID,0,
2011-02-18, 03:56:04,VALID,1007.63,VALID,0,VALID,104,VALID,0,VALID,22.6614,VALID,279,VALID,0.258984,
2011-02-18, 03:57:04,VALID,1007.67,VALID,0,VALID,104,VALID,0,VALID,22.6614,VALID,279,VALID,0.162891,
2011-02-18, 03:58:04,VALID,1007.67,VALID,0,VALID,104,VALID,0,VALID,22.6614,VALID,279,VALID,0.00195313,
2011-02-18, 03:59:04,VALID,1007.67,VALID,0,VALID,104,VALID,0,VALID,22.6614,VALID,280,VALID,0.00078125,